This demonstration page uses our WeatherBlox Daily Observations layout. Learn more.

Hourly Observations for October 13, 2020

Temp ( °F °C ) Dew Point ( °F °C ) Humidity (%) Winds ( mph kmh ) Pressure ( in mb ) Visibility ( mi km ) Precip ( " mm )
12:15 am 00:15 Cloudy 46 8 46 8 100 100 NNE 6 9 29.98 1015 7 11.26538 0 0
12:35 am 00:35 Cloudy 46 8 46 8 100 100 NNE 6 9 29.98 1015 7 11.26538 0 0
12:55 am 00:55 Cloudy 46 8 46 8 100 100 NNE 5 7 29.98 1015 5 8.0467 0 0
1:15 am 01:15 Cloudy 46 8 46 8 100 100 N 9 15 29.98 1015 5 8.0467 0 0
1:35 am 01:35 Cloudy 46 8 46 8 100 100 N 6 9 29.98 1015 5 8.0467 0 0
1:55 am 01:55 Cloudy 46 8 46 8 100 100 N 5 7 29.98 1015 4 6.43736 0 0
2:15 am 02:15 Cloudy 46 8 46 8 100 100 NNW 5 7 29.97 1015 5 8.0467 0 0
2:35 am 02:35 Cloudy 46 8 46 8 100 100 N 7 11 29.97 1015 7 11.26538 0 0
2:55 am 02:55 Cloudy 46 8 46 8 100 100 NNW 8 13 29.97 1015 10 16.0934 0 0
3:15 am 03:15 Cloudy 46 8 46 8 100 100 N 7 11 29.96 1015 7 11.26538 0 0
3:35 am 03:35 Cloudy 45 7 45 7 100 100 N 6 9 29.96 1015 10 16.0934 0 0
3:55 am 03:55 Cloudy 45 7 45 7 100 100 NNW 7 11 29.96 1015 4 6.43736 0 0
4:15 am 04:15 Cloudy 45 7 45 7 100 100 N 3 6 29.95 1014 3 4.82802 0 0
4:35 am 04:35 Cloudy 45 7 45 7 100 100 NNE 5 7 29.94 1014 4 6.43736 0 0
4:55 am 04:55 Cloudy 45 7 45 7 100 100 NNE 3 6 29.93 1014 7 11.26538 0 0
5:15 am 05:15 Cloudy 45 7 45 7 100 100 NNW 5 7 29.94 1014 10 16.0934 0 0
5:35 am 05:35 Cloudy 45 7 45 7 100 100 Calm 29.94 1014 10 16.0934 0 0
5:55 am 05:55 Cloudy 45 7 45 7 100 100 NNW 7 11 29.95 1014 10 16.0934 0 0
6:15 am 06:15 Cloudy 45 7 45 7 100 100 N 6 9 29.95 1014 4 6.43736 0 0
6:35 am 06:35 Cloudy 45 7 45 7 100 100 N 5 7 29.95 1014 2 3.21868 0 0
6:55 am 06:55 Cloudy 45 7 45 7 100 100 NNW 3 6 29.95 1014 3 4.82802 0 0
7:15 am 07:15 Cloudy 45 7 45 7 100 100 NW 6 9 29.96 1015 3 4.82802 0 0
7:35 am 07:35 Cloudy 45 7 45 7 100 100 NNW 6 9 29.96 1015 5 8.0467 0 0
7:55 am 07:55 Cloudy 45 7 45 7 100 100 N 3 6 29.96 1015 10 16.0934 0 0
8:15 am 08:15 Cloudy 46 8 46 8 100 100 NNW 3 6 29.97 1015 10 16.0934 0 0
8:35 am 08:35 Cloudy 46 8 46 8 100 100 NNW 3 6 29.97 1015 10 16.0934 0 0
8:55 am 08:55 Cloudy 46 8 46 8 100 100 NNW 5 7 29.98 1015 10 16.0934 0 0
9:15 am 09:15 Cloudy 46 8 46 8 100 100 NNW 8 13 29.99 1016 10 16.0934 0 0
9:35 am 09:35 Cloudy 46 8 46 8 100 100 N 6 9 29.98 1015 10 16.0934 0 0
9:55 am 09:55 Cloudy 48 9 48 9 100 100 N 9 15 29.99 1015 10 16.0934 0 0
10:15 am 10:15 Cloudy 50 10 50 10 100 100 NW 8 13 29.99 1015 10 16.0934 0 0
10:35 am 10:35 Cloudy 50 10 50 10 100 100 NW 8 13 30 1016 10 16.0934 0 0
10:55 am 10:55 Cloudy 50 10 50 10 100 100 NNW 8 13 30 1016 10 16.0934 0 0
11:15 am 11:15 Mostly Cloudy 52 11 52 11 100 100 NNW 7 11 29.99 1016 10 16.0934 0 0
11:35 am 11:35 Partly Cloudy 54 12 52 11 94 94 NW 10 17 29.98 1015 10 16.0934 0 0
11:55 am 11:55 Mostly Cloudy 55 13 52 11 88 88 NNW 14 22 29.98 1015 10 16.0934 0 0
12:15 pm 12:15 Cloudy N/A N/A N/A NNW 14 22 N/A 10 16.0934 0 0
12:35 pm 12:35 Mostly Cloudy 59 15 52 11 77 77 NNW 14 22 29.97 1015 10 16.0934 0 0
12:55 pm 12:55 Partly Cloudy 61 16 54 12 77 77 NNW 14 22 29.96 1014 10 16.0934 0 0
1:15 pm 13:15 Partly Cloudy 61 16 54 12 77 77 NNW 17 28 29.95 1014 10 16.0934 0 0
1:35 pm 13:35 Mostly Cloudy 63 17 54 12 73 73 NNW 16 26 29.95 1014 10 16.0934 0 0
1:55 pm 13:55 Partly Cloudy N/A N/A N/A NNW 10 17 N/A 10 16.0934 0 0
2:15 pm 14:15 Partly Cloudy N/A N/A N/A NW 16 26 N/A 10 16.0934 0 0
2:35 pm 14:35 Mostly Cloudy N/A N/A N/A NNW 13 20 N/A 10 16.0934 0 0
2:55 pm 14:55 Mostly Cloudy 66 19 52 11 60 60 NW 14 22 29.92 1013 10 16.0934 0 0
3:15 pm 15:15 Partly Cloudy N/A N/A N/A NW 16 26 N/A 10 16.0934 0 0
3:35 pm 15:35 Mostly Cloudy 68 20 52 11 56 56 NNW 16 26 29.93 1014 10 16.0934 0 0
3:55 pm 15:55 Partly Cloudy 64 18 52 11 64 64 NNW 15 24 29.92 1013 10 16.0934 0 0
4:15 pm 16:15 Partly Cloudy N/A N/A N/A NW 15 24 N/A 10 16.0934 0 0
4:35 pm 16:35 Partly Cloudy N/A N/A N/A NNW 20 31 N/A 10 16.0934 0 0
4:55 pm 16:55 Sunny N/A N/A N/A WNW 17 28 N/A 10 16.0934 0 0
5:15 pm 17:15 Sunny 64 18 50 10 60 60 NW 17 28 29.94 1014 10 16.0934 0 0
5:35 pm 17:35 Sunny N/A N/A N/A NW 14 22 N/A 10 16.0934 0 0
5:55 pm 17:55 Sunny 64 18 48 9 56 56 NW 7 11 29.94 1014 10 16.0934 0 0
6:15 pm 18:15 Sunny 63 17 48 9 59 59 NW 3 6 29.96 1014 10 16.0934 0 0
6:35 pm 18:35 Clear 61 16 48 9 63 63 NNW 5 7 29.96 1014 10 16.0934 0 0
6:55 pm 18:55 Clear 61 16 46 8 59 59 N 5 7 29.96 1014 10 16.0934 0 0
7:15 pm 19:15 Clear 59 15 46 8 63 63 NNW 8 13 29.97 1015 10 16.0934 0 0
7:35 pm 19:35 Clear 59 15 46 8 63 63 NNW 9 15 29.99 1016 10 16.0934 0 0
7:55 pm 19:55 Clear 61 16 46 8 59 59 NNW 3 6 29.98 1015 10 16.0934 0 0
8:15 pm 20:15 Clear 59 15 46 8 63 63 NNW 10 17 29.99 1016 10 16.0934 0 0
8:35 pm 20:35 Clear 59 15 45 7 59 59 N 9 15 30 1016 10 16.0934 0 0
8:55 pm 20:55 Clear 57 14 46 8 67 67 N 9 15 30 1016 10 16.0934 0 0
9:15 pm 21:15 Clear 55 13 46 8 72 72 NNW 10 17 30 1016 10 16.0934 0 0
9:35 pm 21:35 Clear 54 12 45 7 72 72 NNW 8 13 30 1016 10 16.0934 0 0
9:55 pm 21:55 Clear 54 12 45 7 72 72 NW 9 15 30.01 1016 10 16.0934 0 0
10:15 pm 22:15 Clear 54 12 45 7 72 72 WNW 9 15 30.01 1016 10 16.0934 0 0
10:35 pm 22:35 Clear 55 13 45 7 67 67 WNW 10 17 30.02 1017 10 16.0934 0 0
10:55 pm 22:55 Clear 54 12 45 7 72 72 NW 8 13 30.02 1017 10 16.0934 0 0
11:15 pm 23:15 Clear 52 11 45 7 77 77 NW 7 11 30.02 1017 10 16.0934 0 0
11:35 pm 23:35 Clear 54 12 43 6 67 67 NW 6 9 30.02 1017 10 16.0934 0 0
11:55 pm 23:55 Clear 54 12 43 6 67 67 NNW 7 11 30.02 1017 10 16.0934 0 0

Powered by AerisWeather